Location: Asheville, NC
(35.6000°N, 82.5500°W)
Time: 15:55:37
(UTC-05:00)

FALCONSAT 3 - Pass Details

Date: 03 January 2018
Orbit: 463 x 466 km, 35.4° (Epoch: 19 January)

Event Time Altitude Azimuth Distance (km) Brightness Sun altitude
Rises 18:18:49 0° 271° (W) 2,480 ? -9.9°
Reaches altitude 10° 18:21:32 10° 251° (WSW) 1,603 ? -10.4°
Maximum altitude 18:23:59 17° 209° (SSW) 1,231 ? -10.9°
Drops below altitude 10° 18:26:26 10° 166° (SSE) 1,600 ? -11.4°
Sets 18:29:09 0° 146° (SE) 2,472 ? -11.9°
